Time,TemperatureF,DewpointF,PressureIn,WindDirection,WindDirectionDegrees,WindSpeedMPH,WindSpeedGustMPH,Humidity,HourlyPrecipIn,Conditions,Clouds,dailyrainin,SoftwareType,DateUTC
2013-01-24 00:03:00,9.0,3.0,30.36,East,101,6.0,-999.0,76,-99.99,,,-99.99,,2013-01-24 07:03:00,
2013-01-24 00:12:00,9.0,3.0,30.36,East,101,6.0,-999.0,76,-99.99,,,-99.99,,2013-01-24 07:12:00,
2013-01-24 00:23:00,9.0,3.0,30.33,East,99,8.0,-999.0,75,-99.99,,,-99.99,,2013-01-24 07:23:00,
2013-01-24 00:33:00,9.0,3.0,30.31,East,86,7.0,-999.0,76,-99.99,,,-99.99,,2013-01-24 07:33:00,
2013-01-24 00:42:00,9.0,3.0,30.31,East,86,7.0,-999.0,76,-99.99,,,-99.99,,2013-01-24 07:42:00,
2013-01-24 00:53:00,9.0,3.0,30.31,East,98,7.0,-999.0,76,-99.99,,,-99.99,,2013-01-24 07:53:00,
2013-01-24 01:02:00,9.0,3.0,30.31,East,92,7.0,-999.0,76,-99.99,,,-99.99,,2013-01-24 08:02:00,
2013-01-24 01:12:00,9.0,3.0,30.31,East,92,7.0,-999.0,76,-99.99,,,-99.99,,2013-01-24 08:12:00,
2013-01-24 01:22:00,9.0,3.0,30.30,East,96,6.0,-999.0,76,-99.99,,,-99.99,,2013-01-24 08:22:00,
2013-01-24 01:33:00,9.0,3.0,30.29,ESE,113,8.0,-999.0,76,-99.99,,,-99.99,,2013-01-24 08:33:00,
2013-01-24 01:42:00,9.0,3.0,30.29,ESE,113,8.0,-999.0,76,-99.99,,,-99.99,,2013-01-24 08:42:00,
2013-01-24 01:53:00,9.0,3.0,30.27,East,91,6.0,-999.0,76,-99.99,,,-99.99,,2013-01-24 08:53:00,
2013-01-24 02:02:00,9.0,3.0,30.28,East,98,7.0,-999.0,76,-99.99,,,-99.99,,2013-01-24 09:02:00,
2013-01-24 02:12:00,9.0,3.0,30.28,East,98,7.0,-999.0,76,-99.99,,,-99.99,,2013-01-24 09:12:00,
2013-01-24 02:23:00,9.0,3.0,30.28,East,86,5.0,-999.0,77,-99.99,,,-99.99,,2013-01-24 09:23:00,
2013-01-24 02:33:00,9.0,3.0,30.27,East,83,4.0,-999.0,77,-99.99,,,-99.99,,2013-01-24 09:33:00,
2013-01-24 02:43:00,9.0,3.0,30.27,East,83,4.0,-999.0,77,-99.99,,,-99.99,,2013-01-24 09:43:00,
2013-01-24 02:53:00,10.0,4.0,30.27,East,82,5.0,-999.0,77,-99.99,,,-99.99,,2013-01-24 09:53:00,
2013-01-24 03:02:00,10.0,4.0,30.26,East,94,7.0,-999.0,77,-99.99,,,-99.99,,2013-01-24 10:02:00,
2013-01-24 03:12:00,10.0,4.0,30.26,East,94,7.0,-999.0,77,-99.99,,,-99.99,,2013-01-24 10:12:00,
2013-01-24 03:22:00,10.0,4.0,30.24,East,101,7.0,-999.0,76,-99.99,,,-99.99,,2013-01-24 10:22:00,
2013-01-24 03:33:00,10.0,4.0,30.24,ESE,118,8.0,-999.0,77,-99.99,,,-99.99,,2013-01-24 10:33:00,
2013-01-24 03:43:00,10.0,4.0,30.24,ESE,118,8.0,-999.0,77,-99.99,,,-99.99,,2013-01-24 10:43:00,
2013-01-24 03:53:00,11.0,5.0,30.23,ESE,109,7.0,-999.0,77,-99.99,,,-99.99,,2013-01-24 10:53:00,
2013-01-24 04:02:00,11.0,5.0,30.22,East,101,7.0,-999.0,77,-99.99,,,-99.99,,2013-01-24 11:02:00,
2013-01-24 04:12:00,11.0,5.0,30.22,East,101,7.0,-999.0,77,-99.99,,,-99.99,,2013-01-24 11:12:00,
2013-01-24 04:23:00,11.0,6.0,30.21,ESE,117,6.0,-999.0,78,-99.99,,,-99.99,,2013-01-24 11:23:00,
2013-01-24 04:33:00,11.0,6.0,30.19,ESE,110,6.0,-999.0,78,-99.99,,,-99.99,,2013-01-24 11:33:00,
2013-01-24 04:43:00,11.0,6.0,30.19,ESE,110,6.0,-999.0,78,-99.99,,,-99.99,,2013-01-24 11:43:00,
2013-01-24 04:53:00,12.0,6.0,30.16,ESE,110,6.0,-999.0,78,-99.99,,,-99.99,,2013-01-24 11:53:00,
2013-01-24 05:03:00,12.0,6.0,30.16,East,96,4.0,-999.0,78,-99.99,,,-99.99,,2013-01-24 12:03:00,
2013-01-24 05:12:00,12.0,6.0,30.16,East,96,4.0,-999.0,78,-99.99,,,-99.99,,2013-01-24 12:12:00,
2013-01-24 05:22:00,12.0,6.0,30.16,ESE,105,3.0,-999.0,78,-99.99,,,-99.99,,2013-01-24 12:22:00,
2013-01-24 05:33:00,12.0,6.0,30.15,SE,130,4.0,-999.0,78,-99.99,,,-99.99,,2013-01-24 12:33:00,
2013-01-24 05:43:00,12.0,6.0,30.15,SE,130,4.0,-999.0,78,-99.99,,,-99.99,,2013-01-24 12:43:00,
2013-01-24 05:53:00,12.0,6.0,30.13,ESE,107,6.0,-999.0,78,-99.99,,,-99.99,,2013-01-24 12:53:00,
2013-01-24 06:03:00,12.0,6.0,30.13,SE,138,6.0,-999.0,78,-99.99,,,-99.99,,2013-01-24 13:03:00,
2013-01-24 06:13:00,12.0,6.0,30.13,SE,138,6.0,-999.0,78,-99.99,,,-99.99,,2013-01-24 13:13:00,
2013-01-24 06:23:00,12.0,6.0,30.13,SE,137,6.0,-999.0,78,-99.99,,,-99.99,,2013-01-24 13:23:00,
2013-01-24 06:33:00,13.0,7.0,30.11,East,88,6.0,-999.0,78,-99.99,,,-99.99,,2013-01-24 13:33:00,
2013-01-24 06:42:00,13.0,7.0,30.11,East,88,6.0,-999.0,78,-99.99,,,-99.99,,2013-01-24 13:42:00,
2013-01-24 06:53:00,13.0,8.0,30.10,ESE,111,5.0,-999.0,79,-99.99,,,-99.99,,2013-01-24 13:53:00,
2013-01-24 07:02:00,13.0,8.0,30.10,ESE,109,6.0,-999.0,79,-99.99,,,-99.99,,2013-01-24 14:02:00,
2013-01-24 07:12:00,13.0,8.0,30.10,ESE,109,6.0,-999.0,79,-99.99,,,-99.99,,2013-01-24 14:12:00,
2013-01-24 07:23:00,13.0,8.0,30.11,SE,132,4.0,-999.0,79,-99.99,,,-99.99,,2013-01-24 14:23:00,
2013-01-24 07:33:00,14.0,9.0,30.08,East,96,3.0,-999.0,80,-99.99,,,-99.99,,2013-01-24 14:33:00,
2013-01-24 07:43:00,14.0,9.0,30.08,East,96,3.0,-999.0,80,-99.99,,,-99.99,,2013-01-24 14:43:00,
2013-01-24 07:54:00,14.0,9.0,30.08,East,94,4.0,-999.0,80,-99.99,,,-99.99,,2013-01-24 14:54:00,
2013-01-24 08:03:00,14.0,9.0,30.09,SE,139,5.0,-999.0,79,-99.99,,,-99.99,,2013-01-24 15:03:00,
2013-01-24 08:12:00,14.0,9.0,30.09,SE,139,5.0,-999.0,79,-99.99,,,-99.99,,2013-01-24 15:12:00,
2013-01-24 08:23:00,15.0,10.0,30.08,ESE,110,3.0,-999.0,79,-99.99,,,-99.99,,2013-01-24 15:23:00,
2013-01-24 08:33:00,15.0,10.0,30.08,ESE,110,3.0,-999.0,79,-99.99,,,-99.99,,2013-01-24 15:33:00,
2013-01-24 08:43:00,15.0,10.0,30.09,ESE,102,4.0,-999.0,79,-99.99,,,-99.99,,2013-01-24 15:43:00,
2013-01-24 08:53:00,15.0,9.0,30.09,ESE,108,3.0,-999.0,78,-99.99,,,-99.99,,2013-01-24 15:53:00,
2013-01-24 09:03:00,15.0,9.0,30.08,ESE,102,5.0,-999.0,78,-99.99,,,-99.99,,2013-01-24 16:03:00,
2013-01-24 09:12:00,15.0,9.0,30.08,ESE,102,5.0,-999.0,78,-99.99,,,-99.99,,2013-01-24 16:12:00,
2013-01-24 09:23:00,15.0,9.0,30.07,East,85,5.0,-999.0,78,-99.99,,,-99.99,,2013-01-24 16:23:00,
2013-01-24 09:33:00,16.0,10.0,30.07,ESE,108,5.0,-999.0,78,-99.99,,,-99.99,,2013-01-24 16:33:00,
2013-01-24 09:42:00,16.0,10.0,30.07,ESE,108,5.0,-999.0,78,-99.99,,,-99.99,,2013-01-24 16:42:00,
2013-01-24 10:02:00,17.0,11.0,30.09,ESE,103,4.0,-999.0,77,-99.99,,,-99.99,,2013-01-24 17:02:00,
2013-01-24 10:12:00,17.0,11.0,30.09,ESE,103,4.0,-999.0,77,-99.99,,,-99.99,,2013-01-24 17:12:00,
2013-01-24 10:22:00,18.0,12.0,30.11,ESE,105,2.0,-999.0,76,-99.99,,,-99.99,,2013-01-24 17:22:00,
2013-01-24 10:32:00,18.0,11.0,30.09,East,98,2.0,-999.0,75,-99.99,,,-99.99,,2013-01-24 17:32:00,
2013-01-24 10:42:00,18.0,11.0,30.09,East,98,2.0,-999.0,75,-99.99,,,-99.99,,2013-01-24 17:42:00,
2013-01-24 10:52:00,18.0,13.0,30.08,SSE,156,6.0,-999.0,81,-99.99,,,-99.99,,2013-01-24 17:52:00,
2013-01-24 11:02:00,19.0,14.0,30.04,ESE,107,5.0,-999.0,82,-99.99,,,-99.99,,2013-01-24 18:02:00,
2013-01-24 11:12:00,20.0,15.0,30.05,SSE,149,5.0,-999.0,81,-99.99,,,-99.99,,2013-01-24 18:12:00,
2013-01-24 11:22:00,20.0,15.0,30.05,SSE,149,5.0,-999.0,81,-99.99,,,-99.99,,2013-01-24 18:22:00,
2013-01-24 11:32:00,21.0,15.0,30.05,SE,146,6.0,-999.0,78,-99.99,,,-99.99,,2013-01-24 18:32:00,
2013-01-24 11:42:00,21.0,15.0,30.05,SE,146,6.0,-999.0,78,-99.99,,,-99.99,,2013-01-24 18:42:00,
2013-01-24 11:53:00,23.0,17.0,30.04,South,174,5.0,-999.0,76,-99.99,,,-99.99,,2013-01-24 18:53:00,
2013-01-24 12:02:00,24.0,17.0,30.03,SSE,164,4.0,-999.0,73,-99.99,,,-99.99,,2013-01-24 19:02:00,
2013-01-24 12:12:00,24.0,17.0,30.03,SSE,164,4.0,-999.0,73,-99.99,,,-99.99,,2013-01-24 19:12:00,
2013-01-24 12:22:00,25.0,18.0,30.02,SSE,157,4.0,-999.0,73,-99.99,,,-99.99,,2013-01-24 19:22:00,
2013-01-24 12:33:00,26.0,18.0,30.01,SSE,153,4.0,-999.0,70,-99.99,,,-99.99,,2013-01-24 19:33:00,
2013-01-24 12:42:00,26.0,18.0,30.01,SSE,153,4.0,-999.0,70,-99.99,,,-99.99,,2013-01-24 19:42:00,
2013-01-24 12:53:00,27.0,18.0,30.01,SE,142,5.0,-999.0,69,-99.99,,,-99.99,,2013-01-24 19:53:00,
2013-01-24 13:02:00,28.0,19.0,30.01,SSE,153,4.0,-999.0,69,-99.99,,,-99.99,,2013-01-24 20:02:00,
2013-01-24 13:11:00,28.0,19.0,30.01,SSE,153,4.0,-999.0,69,-99.99,,,-99.99,,2013-01-24 20:11:00,
2013-01-24 13:22:00,29.0,20.0,29.99,SSE,149,6.0,-999.0,69,-99.99,,,-99.99,,2013-01-24 20:22:00,
2013-01-24 13:32:00,30.0,21.0,29.99,South,174,4.0,-999.0,69,-99.99,,,-99.99,,2013-01-24 20:32:00,
2013-01-24 13:42:00,30.0,21.0,29.99,South,174,4.0,-999.0,69,-99.99,,,-99.99,,2013-01-24 20:42:00,
2013-01-24 13:52:00,30.0,21.0,29.98,SSE,160,5.0,-999.0,68,-99.99,,,-99.99,,2013-01-24 20:52:00,
2013-01-24 14:02:00,31.0,22.0,29.97,South,180,3.0,-999.0,69,-99.99,,,-99.99,,2013-01-24 21:02:00,
2013-01-24 14:12:00,31.0,22.0,29.97,South,180,3.0,-999.0,69,-99.99,,,-99.99,,2013-01-24 21:12:00,
2013-01-24 14:22:00,32.0,23.0,29.98,SSE,162,2.0,-999.0,69,-99.99,,,-99.99,,2013-01-24 21:22:00,
2013-01-24 14:33:00,32.0,23.0,29.99,SW,216,5.0,-999.0,70,-99.99,,,-99.99,,2013-01-24 21:33:00,
2013-01-24 14:43:00,32.0,23.0,29.99,SW,216,5.0,-999.0,70,-99.99,,,-99.99,,2013-01-24 21:43:00,
2013-01-24 14:53:00,34.0,27.0,30.00,WSW,244,7.0,-999.0,75,-99.99,,,-99.99,,2013-01-24 21:53:00,
2013-01-24 15:02:00,34.0,27.0,30.00,WSW,244,7.0,-999.0,75,-99.99,,,-99.99,,2013-01-24 22:02:00,
2013-01-24 15:12:00,34.0,27.0,30.00,WSW,244,7.0,-999.0,75,-99.99,,,-99.99,,2013-01-24 22:12:00,
2013-01-24 15:22:00,34.0,27.0,30.00,WSW,244,7.0,-999.0,75,-99.99,,,-99.99,,2013-01-24 22:22:00,
2013-01-24 15:32:00,34.0,26.0,30.01,WSW,250,13.0,-999.0,72,-99.99,,,-99.99,,2013-01-24 22:32:00,
2013-01-24 15:42:00,34.0,26.0,30.01,WSW,250,13.0,-999.0,72,-99.99,,,-99.99,,2013-01-24 22:42:00,
2013-01-24 15:53:00,33.0,25.0,30.01,West,263,13.0,-999.0,73,-99.99,,,-99.99,,2013-01-24 22:53:00,
2013-01-24 16:02:00,32.0,25.0,30.03,West,269,8.0,-999.0,74,-99.99,,,-99.99,,2013-01-24 23:02:00,
2013-01-24 16:12:00,32.0,25.0,30.03,West,269,8.0,-999.0,74,-99.99,,,-99.99,,2013-01-24 23:12:00,
2013-01-24 16:22:00,31.0,24.0,30.04,West,264,7.0,-999.0,76,-99.99,,,-99.99,,2013-01-24 23:22:00,
2013-01-24 16:32:00,31.0,25.0,30.05,West,267,8.0,-999.0,77,-99.99,,,-99.99,,2013-01-24 23:32:00,
2013-01-24 16:42:00,31.0,25.0,30.05,West,267,8.0,-999.0,77,-99.99,,,-99.99,,2013-01-24 23:42:00,
2013-01-24 16:52:00,31.0,24.0,30.05,WSW,248,12.0,-999.0,75,-99.99,,,-99.99,,2013-01-24 23:52:00,
2013-01-24 17:02:00,30.0,23.0,30.05,WSW,246,12.0,-999.0,76,-99.99,,,-99.99,,2013-01-25 00:02:00,
2013-01-24 17:12:00,30.0,23.0,30.05,WSW,246,12.0,-999.0,76,-99.99,,,-99.99,,2013-01-25 00:12:00,
2013-01-24 17:22:00,28.0,22.0,30.05,WSW,246,12.0,-999.0,77,-99.99,,,-99.99,,2013-01-25 00:22:00,
2013-01-24 17:30:00,27.0,21.0,30.07,West,276,12.0,-999.0,78,-99.99,,,-99.99,,2013-01-25 00:30:00,
2013-01-24 17:32:00,28.0,22.0,30.06,West,263,14.0,-999.0,78,-99.99,,,-99.99,,2013-01-25 00:32:00,
2013-01-24 17:42:00,28.0,22.0,30.06,West,263,14.0,-999.0,78,-99.99,,,-99.99,,2013-01-25 00:42:00,
2013-01-24 17:52:00,27.0,21.0,30.07,West,276,12.0,-999.0,78,-99.99,,,-99.99,,2013-01-25 00:52:00,
2013-01-24 18:01:00,27.0,21.0,30.07,West,276,12.0,-999.0,78,-99.99,,,-99.99,,2013-01-25 01:01:00,
2013-01-24 18:12:00,27.0,21.0,30.07,West,276,12.0,-999.0,78,-99.99,,,-99.99,,2013-01-25 01:12:00,
2013-01-24 18:22:00,27.0,21.0,30.07,West,276,12.0,-999.0,78,-99.99,,,-99.99,,2013-01-25 01:22:00,
2013-01-24 21:52:00,26.0,21.0,30.12,SW,228,1.0,-999.0,80,-99.99,,,-99.99,,2013-01-25 04:52:00,
2013-01-24 22:03:00,24.0,18.0,30.13,SW,228,0.0,-999.0,79,-99.99,,,-99.99,,2013-01-25 05:03:00,
2013-01-24 22:12:00,24.0,18.0,30.13,SW,228,0.0,-999.0,79,-99.99,,,-99.99,,2013-01-25 05:12:00,
2013-01-24 22:22:00,22.0,16.0,30.14,SW,228,0.0,-999.0,79,-99.99,,,-99.99,,2013-01-25 05:22:00,
2013-01-24 22:32:00,20.0,15.0,30.14,SW,228,0.0,-999.0,80,-99.99,,,-99.99,,2013-01-25 05:32:00,
2013-01-24 22:43:00,20.0,15.0,30.14,SW,228,0.0,-999.0,80,-99.99,,,-99.99,,2013-01-25 05:43:00,
2013-01-24 22:52:00,18.0,13.0,30.15,SW,228,0.0,-999.0,82,-99.99,,,-99.99,,2013-01-25 05:52:00,
2013-01-24 23:02:00,18.0,13.0,30.15,SW,228,0.0,-999.0,82,-99.99,,,-99.99,,2013-01-25 06:02:00,
2013-01-24 23:11:00,18.0,13.0,30.15,SW,228,0.0,-999.0,82,-99.99,,,-99.99,,2013-01-25 06:11:00,
2013-01-24 23:21:00,20.0,17.0,30.16,South,181,0.0,-999.0,89,-99.99,,,-99.99,,2013-01-25 06:21:00,
2013-01-24 23:32:00,20.0,16.0,30.16,South,182,0.0,-999.0,85,-99.99,,,-99.99,,2013-01-25 06:32:00,
2013-01-24 23:42:00,20.0,16.0,30.16,South,182,0.0,-999.0,85,-99.99,,,-99.99,,2013-01-25 06:42:00,
2013-01-24 23:52:00,19.0,14.0,30.16,South,182,1.0,-999.0,82,-99.99,,,-99.99,,2013-01-25 06:52:00,